sat.trackr.live / text

‹ back to catalog

STARLINK-32490

NORAD 62126 · 2024-222N

PAYLOAD ACTIVE UNKNOWN

§ Identity

Operator
Country
US
Launch date
2024-11-27
Launch site
AFETR
Launch vehicle
Mass (kg)
RCS (m²)

Purposes: comms

External: N2YO · Heavens-Above · Gunter

§ Orbital elements

Epoch: 2026-09-21T22:04:34.158720Z

Period
94.27 min
Inclination
43.0027°
Eccentricity
0.0002937
Mean motion
15.27590694 rev/d
Perigee alt
481.0 km
Apogee alt
485.0 km
Semi-major
6,861.2 km
B*
4.1177e-4
RAAN
107.6520°
Arg perigee
280.1247°
Mean anomaly
79.9273°
Rev number
10,276

§ Raw data

STARLINK-324901 62126U 24222N   26264.91983980  .00011090  00000+0  41177-3 0  99992 62126  43.0027 107.6520 0002937 280.1247  79.9273 15.27590694102762

JSON: /api/v1/satellites/62126 · /tle

For live sub-satellite position, see the globe view (requires WebGL).

§ Visibility from observer

Set your observer location to see the next 7 days of passes ≥ 10°. The values pass through the URL so the page stays shareable.

No JS? Fill the form by hand. The geolocation button needs JavaScript.